Location: San Pelegr�n
(42.1868°N, 0.0079°E)
Time: 15:19:27
(UTC+00:00)

Cosmos 2341 Rocket - Pass Details

Date: 24 January 2020
Orbit: 967 x 1005 km, 82.9° (Epoch: 26 February)

Event Time Altitude Azimuth Distance (km) Brightness Sun altitude
Rises 17:27:18 0° 171° (S) 3,716 7.2 -4.9°
Reaches altitude 10° 17:29:52 10° 167° (SSE) 2,768 6.5 -5.3°
Maximum altitude 17:36:03 55° 92° (E) 1,188 4.2 -6.4°
Drops below altitude 10° 17:42:13 10° 16° (NNE) 2,767 6.0 -7.5°
Sets 17:44:47 0° 13° (NNE) 3,715 6.7 -7.9°
